COSMOS 469

Satellite information

Favourite Embed

Satellite Type and Status

PAYLOADIN ORBIT

Key statistics

Satellite COSMOS 469 at a glance.

Uptime

19713

Days in orbit

Revolutions

≈ 13.8

Per day

Orbit

LEO

Low Earth Orbit

Inclination

64.5

Latest

Satellite identification and parameters

Extended collection of information and parameters for COSMOS 469.

Object identification

Identified? True

Debris? False

Object name: COSMOS 469

International designator: 1971-117A

Object number (NORAD): 5721

Object ID (CCSDS): 5721

Country: COMMONWEALTH OF INDEPENDENT STATES (CIS)

Current information (Y/N): Y

RCS size: LARGE

Orbital parameters

Period: 104.641 minutes

Inclination: 64.4875 deg

SMA: 7355.752 km

Apoapsis: 1023.551 km

Periapsis: 931.683 km

RAAN: 111.6097 deg

Eccentricy: 0.00624464

Argument of periapsis: 297.4056 deg

Mean anomaly: 62.0652 deg

Mean motion: 13.7613855 rev/day

Mean motion (dot): -0.00000053 rev/day2

B* drag term: 0.000037541296 1/REarth

Two-line elements (TLE)

Creation date: Dec. 14, 2025, 3:07 a.m.

Reference frame: TEME

Reference center: EARTH

Epoch: Dec. 13, 2025, 3:51 p.m. UTC

TLE line 0: 0 COSMOS 469

TLE line 1: 1 05721U 71117A 25347.66074291 -.00000053 00000-0 37541-4 0 9991

TLE line 2: 2 05721 64.4875 111.6097 0062446 297.4056 62.0652 13.76138550711594

Live tracking on map

Real-time ground track for satellite COSMOS 469.

In-orbit conjunctions

A list of the most updated potential collisions computed for object COSMOS 469.

Target Orbit TCA Probability of collision Miss distance Type
COSMOS 1275 DEB LEO 2025-08-27 04:15:49 0.0001599761 160.0 (m) DEBRIS
COSMOS 839 DEB MEO 2025-01-12 08:55:50 0.0002164968 98.0 (m) DEBRIS
COSMOS 1275 DEB LEO 2024-11-03 16:49:18 0.000272158 157.0 (m) DEBRIS
DELTA 1 DEB SSO 2024-06-22 06:29:40 0.0004355577 628.0 (m) DEBRIS
FENGYUN 1C DEB SSO 2024-05-30 18:00:50 0.0001026605 479.0 (m) DEBRIS

Associated space launch

Active radar satellite for ocean surveillance powered by a nuclear reactor.

COSMOS 469 was lifted into orbit during the mission ‘Tsiklon-2 | US-A 3’, on board a Tsiklon-2 space rocket.

The launch took place on Dec. 25, 1971, 11:29 a.m. from 90/19.

For more information about the launch, click the button.

Launch to space Tsiklon-2 | US-A 3
Tsiklon-2 | US-A 3

Agency: N/A

Status: Launch Successful

Launch date: Dec. 25, 1971, 11:29 a.m. UTC

Rocket: Tsiklon-2

Launch pad: 90/19

Location: Baikonur Cosmodrome, Republic of Kazakhstan

...

Latest news about this satellite

There are no fresh news available about this satellite. Check back as we update our databases every day.


Newsletter sign-up

Weekly statistics, charts and insights to help you stay on top of the space industry.